Showing default

JAS 1 (FUJI 1), 16909

Orbit data source: Space-Track

JAS 1 (FUJI 1), 16909 is a payload satellite owned by JARL (JP) in LEO that was launched on Tue, 12 Aug 1986 UTC via an H-1 launch vehicle from the Tanegashima Space Center (TNSTA). Payload-class satellites include a variety of spacecraft equipped with specific instruments for various scientific and technological missions. These include communications satellites like Starlink; space stations such as the ISS; scientific satellites like the Hubble; Earth observation satellites from companies like Planet Labs, Umbra, and HawkEye 360; GPS; miniature CubeSats for education and research; and military/defense satellites.

Loading next visibility...
Identifier
16909, 1986-061B
Orbit
LEO
Country
Flag of JPJP / JPN
Related business
Manufacturer
JARL
Mission
Non-operational Amateur Communications
Bus & Motor
JAS, Unknown motor
Mass
50 kg wet, 50 kg dry
Launch date (UTC)
1986-08-12 (39 years ago)
Launch vehicle
H-1
Launch site
Tanegashima Space Center (TNSTA)
Object type
Payload
Rocket body
Debris
Shape & HBR
Poly, 0.3 m
Radar Cross Section
0.248 m², Medium (>0.1 m² and < 1m²)

Expand to show TLE details & history
Last TLE update: 20 hours ago

TLE from 20 hours ago
0 JAS 1 (FUJI 1)
1 16909U 86061B   25346.81894844 -.00000093  00000-0  29805-4 0  9993
2 16909  50.0174   6.3335 0011139  47.3925 122.6318 12.44484722788889
Epoch: 2025-12-12T19:39Z
TLE epoch observation values (Epoch: 2025-12-12T19:39:17.145Z)
Latitude
7.52277°
Longitude
163.4302°
Altitude
1,492.209 km
Speed
7.117 km/s
True Right ascension
12h 00m 01s
True Declination
7° 28' 57"
Sunlit
Object was in daylight at epoch
Visualization orbit readout
Latitude
Unknown
Longitude
Unknown
Altitude
Unknown
Speed
Unknown
Apparent Right ascension
Unknown
Apparent Declination
Unknown
Sunlit
N/A
Visualization observer readout
Local Sidereal Time
14:26:33
Azimuth
Unknown
Elevation
Unknown
Doppler factor
Unknown
Orbital elements
Apogee altitude
1,497.084 km
Perigee altitude
1,479.56 km
Semi-major axis
7,866.459 km
Eccentricity
0.00111
Inclination
50.0174°
RAAN
6.3335°
Arg. of periapsis
47.3925°
True anomaly
122.73921°
Mean anomaly
122.6318°
Eccentric anomaly
122.68552°
Mean motion
3.11082 °/min
Orbital period
115.73 mins
BSTAR
0.000029805
Loading maneuver chart data...
Computing Atmospheric mass density...
Loading historical data...
Loading historical data...
Loading historical data...
Loading historical data...
Loading historical data...
Loading historical data...
Loading historical data...
Other satellites on launch #61 in the year 1986 (1986-08-12 UTC)

Documentation

Showing up to 5 results
|